Hourly Weather Durango

Today, 22 September, Tuesday

Time Temperature Precipitation Wind Pressure Humidity
00:00 +15°C° 0 mm 1 mps 747 mmHg 96%
01:00 +15°C° 0 mm 1 mps 747 mmHg 96%
02:00 +15°C° 0 mm 1 mps 747 mmHg 95%
03:00 +15°C° 0 mm 1 mps 747 mmHg 95%
04:00 +15°C° 0 mm 1 mps 747 mmHg 95%
05:00 +14°C° 0 mm 1 mps 746 mmHg 94%
06:00 +14°C° 0 mm 1 mps 746 mmHg 94%
07:00 +18°C° 0 mm 1 mps 746 mmHg 85%
08:00 +18°C° 0 mm 0 mps 746 mmHg 75%
09:00 +21°C° 0 mm 0 mps 746 mmHg 66%
10:00 +24°C° 0 mm 1 mps 746 mmHg 59%
11:00 +26°C° 0 mm 1 mps 746 mmHg 53%
12:00 +27°C° 0 mm 2 mps 746 mmHg 46%
13:00 +26°C° 0.2 mm 2 mps 746 mmHg 50%
14:00 +26°C° 0.2 mm 2 mps 745 mmHg 54%
15:00 +25°C° 0.2 mm 2 mps 744 mmHg 58%
16:00 +23°C° 0.2 mm 1 mps 744 mmHg 68%
17:00 +21°C° 0.2 mm 1 mps 744 mmHg 79%
18:00 +19°C° 0.2 mm 1 mps 744 mmHg 89%
19:00 +19°C° 0 mm 1 mps 744 mmHg 91%
20:00 +16°C° 0 mm 0 mps 744 mmHg 93%
21:00 +15°C° 0 mm 0 mps 745 mmHg 95%
22:00 +15°C° 0 mm 0 mps 744 mmHg 94%
23:00 +16°C° 0 mm 1 mps 744 mmHg 93%

Tomorrow, 23 September, Wednesday

Time Temperature Precipitation Wind Pressure Humidity
00:00 +16°C° 0 mm 1 mps 744 mmHg 93%
01:00 +16°C° 0 mm 1 mps 744 mmHg 91%
02:00 +16°C° 0 mm 1 mps 744 mmHg 89%
03:00 +15°C° 0 mm 2 mps 743 mmHg 87%
04:00 +16°C° 0 mm 2 mps 743 mmHg 84%
05:00 +16°C° 0 mm 2 mps 743 mmHg 82%
06:00 +16°C° 0 mm 2 mps 743 mmHg 79%
07:00 +18°C° 0 mm 3 mps 743 mmHg 71%
08:00 +21°C° 0 mm 3 mps 743 mmHg 62%
09:00 +23°C° 0 mm 4 mps 743 mmHg 54%
10:00 +25°C° 0 mm 4 mps 743 mmHg 50%
11:00 +27°C° 0 mm 5 mps 742 mmHg 46%
12:00 +28°C° 0 mm 5 mps 742 mmHg 43%
13:00 +28°C° 0.1 mm 5 mps 742 mmHg 44%
14:00 +28°C° 0.1 mm 5 mps 742 mmHg 44%
15:00 +28°C° 0.1 mm 4 mps 742 mmHg 45%
16:00 +25°C° 0.4 mm 3 mps 742 mmHg 59%
17:00 +21°C° 0.4 mm 3 mps 742 mmHg 72%
18:00 +19°C° 0.4 mm 2 mps 742 mmHg 86%
19:00 +18°C° 0.3 mm 2 mps 743 mmHg 88%
20:00 +19°C° 0.3 mm 1 mps 744 mmHg 90%
21:00 +18°C° 0.3 mm 1 mps 744 mmHg 93%
22:00 +18°C° 0.3 mm 1 mps 744 mmHg 93%
23:00 +18°C° 0.3 mm 1 mps 744 mmHg 94%

Day after tomorrow, 24 September, Thursday

Time Temperature Precipitation Wind Pressure Humidity
00:00 +18°C° 0.3 mm 1 mps 744 mmHg 94%
01:00 +18°C° 0.1 mm 1 mps 744 mmHg 94%
02:00 +18°C° 0.1 mm 1 mps 744 mmHg 94%
03:00 +18°C° 0.1 mm 1 mps 744 mmHg 94%
04:00 +18°C° 0.2 mm 1 mps 744 mmHg 94%
05:00 +18°C° 0.2 mm 1 mps 744 mmHg 94%
06:00 +16°C° 0.2 mm 1 mps 744 mmHg 94%
07:00 +18°C° 0.2 mm 1 mps 743 mmHg 90%
08:00 +18°C° 0.2 mm 2 mps 743 mmHg 86%
09:00 +20°C° 0.2 mm 2 mps 743 mmHg 82%
10:00 +20°C° 0.3 mm 2 mps 743 mmHg 76%
11:00 +21°C° 0.3 mm 3 mps 743 mmHg 71%
12:00 +22°C° 0.3 mm 4 mps 743 mmHg 65%
13:00 +21°C° 0.2 mm 4 mps 743 mmHg 68%
14:00 +20°C° 0.2 mm 4 mps 743 mmHg 72%
15:00 +19°C° 0.2 mm 4 mps 742 mmHg 75%
16:00 +18°C° 0.2 mm 4 mps 743 mmHg 78%
17:00 +17°C° 0.2 mm 4 mps 743 mmHg 81%
18:00 +15°C° 0.2 mm 4 mps 743 mmHg 84%
19:00 +15°C° 0.3 mm 4 mps 743 mmHg 85%
20:00 +14°C° 0.3 mm 4 mps 744 mmHg 87%
21:00 +14°C° 0.3 mm 4 mps 745 mmHg 88%
22:00 +13°C° 1.3 mm 4 mps 745 mmHg 90%
23:00 +13°C° 1.3 mm 5 mps 745 mmHg 92%

25 September, Friday

Time Temperature Precipitation Wind Pressure Humidity
00:00 +12°C° 1.3 mm 5 mps 745 mmHg 93%
01:00 +11°C° 0.7 mm 6 mps 745 mmHg 92%
02:00 +10°C° 0.7 mm 6 mps 746 mmHg 91%
03:00 +10°C° 0.7 mm 6 mps 746 mmHg 90%
04:00 +10°C° 0.8 mm 6 mps 746 mmHg 90%
05:00 +10°C° 0.8 mm 6 mps 746 mmHg 90%
06:00 +10°C° 0.8 mm 6 mps 747 mmHg 90%
07:00 +10°C° 1.1 mm 6 mps 747 mmHg 90%
08:00 +10°C° 1.1 mm 7 mps 748 mmHg 90%
09:00 +10°C° 1.1 mm 7 mps 748 mmHg 90%
10:00 +10°C° 0.9 mm 7 mps 749 mmHg 88%
11:00 +11°C° 0.9 mm 8 mps 749 mmHg 86%
12:00 +11°C° 0.9 mm 8 mps 750 mmHg 83%
13:00 +11°C° 0.7 mm 8 mps 750 mmHg 83%
14:00 +11°C° 0.7 mm 8 mps 750 mmHg 83%
15:00 +11°C° 0.7 mm 8 mps 750 mmHg 83%
16:00 +11°C° 0.6 mm 8 mps 751 mmHg 84%
17:00 +11°C° 0.6 mm 7 mps 751 mmHg 86%
18:00 +10°C° 0.6 mm 7 mps 752 mmHg 87%
19:00 +10°C° 0.4 mm 6 mps 752 mmHg 88%
20:00 +10°C° 0.4 mm 5 mps 753 mmHg 89%
21:00 +10°C° 0.4 mm 5 mps 753 mmHg 89%
22:00 +10°C° 0.4 mm 5 mps 753 mmHg 90%
23:00 +10°C° 0.4 mm 5 mps 753 mmHg 90%

26 September, Saturday

Time Temperature Precipitation Wind Pressure Humidity
00:00 +10°C° 0.4 mm 5 mps 753 mmHg 90%
01:00 +11°C° 0.2 mm 4 mps 753 mmHg 90%
02:00 +10°C° 0.2 mm 4 mps 753 mmHg 90%
03:00 +10°C° 0.2 mm 4 mps 753 mmHg 90%
04:00 +10°C° 0.3 mm 4 mps 753 mmHg 90%
05:00 +10°C° 0.3 mm 3 mps 753 mmHg 91%
06:00 +11°C° 0.3 mm 3 mps 753 mmHg 91%
07:00 +11°C° 0.3 mm 3 mps 753 mmHg 92%
08:00 +12°C° 0.3 mm 3 mps 754 mmHg 92%
09:00 +12°C° 0.3 mm 3 mps 754 mmHg 92%
10:00 +13°C° 0.3 mm 3 mps 754 mmHg 91%
11:00 +13°C° 0.3 mm 4 mps 753 mmHg 90%
12:00 +13°C° 0.3 mm 4 mps 753 mmHg 89%
13:00 +14°C° 0.2 mm 4 mps 753 mmHg 87%
14:00 +14°C° 0.2 mm 4 mps 753 mmHg 84%
15:00 +15°C° 0.2 mm 4 mps 753 mmHg 82%
16:00 +14°C° 0.2 mm 4 mps 752 mmHg 85%
17:00 +13°C° 0.2 mm 3 mps 752 mmHg 88%
18:00 +13°C° 0.2 mm 3 mps 751 mmHg 92%
19:00 +13°C° 0.2 mm 3 mps 751 mmHg 91%
20:00 +13°C° 0.2 mm 3 mps 751 mmHg 90%
21:00 +13°C° 0.2 mm 4 mps 751 mmHg 90%
22:00 +13°C° 0.3 mm 4 mps 750 mmHg 89%
23:00 +13°C° 0.3 mm 4 mps 750 mmHg 88%

27 September, Sunday

Time Temperature Precipitation Wind Pressure Humidity
00:00 +13°C° 0.3 mm 4 mps 750 mmHg 87%
01:00 +13°C° 0.6 mm 4 mps 749 mmHg 89%
02:00 +13°C° 0.6 mm 4 mps 749 mmHg 91%
03:00 +13°C° 0.6 mm 3 mps 748 mmHg 92%
04:00 +13°C° 1.4 mm 3 mps 748 mmHg 94%
05:00 +13°C° 1.4 mm 3 mps 748 mmHg 95%
06:00 +14°C° 1.4 mm 2 mps 749 mmHg 97%
07:00 +15°C° 1.3 mm 2 mps 749 mmHg 97%
08:00 +14°C° 1.3 mm 3 mps 749 mmHg 97%
09:00 +14°C° 1.3 mm 3 mps 749 mmHg 97%
10:00 +15°C° 0.6 mm 4 mps 749 mmHg 94%
11:00 +17°C° 0.6 mm 4 mps 749 mmHg 91%
12:00 +17°C° 0.6 mm 5 mps 749 mmHg 87%
13:00 +17°C° 0.6 mm 5 mps 750 mmHg 89%
14:00 +17°C° 0.6 mm 4 mps 750 mmHg 90%
15:00 +17°C° 0.6 mm 4 mps 750 mmHg 92%
16:00 +16°C° 0.1 mm 3 mps 750 mmHg 93%
17:00 +14°C° 0.1 mm 3 mps 750 mmHg 93%
18:00 +15°C° 0.1 mm 2 mps 751 mmHg 94%
19:00 +14°C° 0.1 mm 2 mps 751 mmHg 94%
20:00 +14°C° 0.1 mm 2 mps 751 mmHg 94%
21:00 +14°C° 0.1 mm 2 mps 752 mmHg 94%
22:00 +14°C° 0.1 mm 2 mps 752 mmHg 94%
23:00 +14°C° 0.1 mm 2 mps 752 mmHg 93%
Show more